Location: B?jaj?g
(11.7167°N, 92.6667°E)
Time: 14:15:04
(UTC+00:00)

Intelsat 5-3 Rocket - Pass Details

Date: 18 September 2020
Orbit: 281 x 6110 km, 23.6° (Epoch: 27 October)

Event Time Altitude Azimuth Distance (km) Brightness Sun altitude
Rises 12:20:50 0° 302° (WNW) 2,438 6.8 -8.9°
Reaches altitude 10° 12:22:25 10° 310° (NW) 1,810 5.8 -9.2°
Maximum altitude 12:26:15 47° 26° (NNE) 1,127 3.7 -10.2°
Enters shadow 12:33:36 14° 95° (E) 3,575 5.7 -12.0°
